Ely, MN

10:22 PM CST on November 22, 2017 (GMT -0600)
Ely Municipal

Weather History for KELO - November, 2014

Change the Weather History Date:

Wednesday, November 5, 2014

  Actual Average Record
Temperature  
Mean Temperature 34 °F -  
Max Temperature 37 °F 38 °F 68 °F (2016)
Min Temperature 32 °F 24 °F 1 °F (1997)
Degree Days  
Heating Degree Days 30    
Moisture  
Dew Point 25 °F    
Average Humidity 71    
Maximum Humidity 75    
Minimum Humidity 60    
Precipitation  
Precipitation 0.00 in - - ()
Sea Level Pressure  
Sea Level Pressure 29.96 in    
Wind  
Wind Speed 6 mph (NW)    
Max Wind Speed 16 mph    
Max Gust Speed 23 mph    
Visibility 10 miles    
Events      
Averages and records for this station are not official NWS values.
T = Trace of Precipitation, MM = Missing Value Source: NWS Daily Summary

Daily Weather History Graph

Daily Weather History Graph

Search for Another Location

Airport or City:

Trip Planner

Search our weather history database for the weather conditions in past years. The results will help you decide how hot, cold, wet, or windy it might be!

Date:

Astronomy

Nov. 05, 2014 Rise Set
Actual Time 6:57 AM CST 4:43 PM CST
Civil Twilight 6:25 AM CST 5:15 PM CST
Nautical Twilight 5:48 AM CST 5:52 PM CST
Astronomical Twilight 5:12 AM CST 6:28 PM CST
Moon 4:14 PM CST (11/5) 5:16 AM CST (11/5)
Length of Visible Light 10h 50m
Length of Day
9h 45m
Waxing Gibbous, 98% of the Moon is Illuminated
Nov 5
Waxing Gibbous
Nov 6
Full
Nov 14
Last Quarter
Nov 22
New
Nov 29
First Quarter

Hourly Weather History & Observations

Time (CST) Temp. Windchill Dew Point Humidity Pressure Visibility Wind Dir Wind Speed Gust Speed Precip Events Conditions
12:13 AM 33.8 °F 27.0 °F 24.8 °F 70% 29.84 in 10.0 mi WNW 8.1 mph 17.3 mph N/A   Overcast
12:32 AM 33.8 °F 23.9 °F 24.8 °F 70% 29.84 in 10.0 mi West 15.0 mph 23.0 mph N/A   Overcast
12:53 AM 32.0 °F 23.6 °F 24.8 °F 75% 29.85 in 10.0 mi WNW 10.4 mph 16.1 mph N/A   Overcast
1:13 AM 32.0 °F 23.6 °F 24.8 °F 75% 29.85 in 10.0 mi West 10.4 mph - N/A   Overcast
1:33 AM 32.0 °F 21.2 °F 24.8 °F 75% 29.86 in 10.0 mi WNW 16.1 mph 19.6 mph N/A   Overcast
1:53 AM 32.0 °F 24.2 °F 24.8 °F 75% 29.87 in 10.0 mi West 9.2 mph 18.4 mph N/A   Overcast
2:13 AM 32.0 °F 23.0 °F 23.0 °F 69% 29.87 in 10.0 mi West 11.5 mph - N/A   Overcast
2:33 AM 32.0 °F 24.2 °F 23.0 °F 69% 29.88 in 10.0 mi West 9.2 mph - N/A   Overcast
2:53 AM 32.0 °F 24.2 °F 24.8 °F 75% 29.88 in 10.0 mi West 9.2 mph - N/A   Overcast
3:13 AM 32.0 °F 22.1 °F 24.8 °F 75% 29.88 in 10.0 mi West 13.8 mph - N/A   Overcast
3:33 AM 32.0 °F 23.0 °F 24.8 °F 75% 29.89 in 10.0 mi West 11.5 mph - N/A   Overcast
3:53 AM 32.0 °F 24.2 °F 24.8 °F 75% 29.89 in 10.0 mi West 9.2 mph - N/A   Overcast
4:13 AM 32.0 °F 25.6 °F 24.8 °F 75% 29.90 in 10.0 mi West 6.9 mph 16.1 mph N/A   Overcast
4:33 AM 32.0 °F 24.2 °F 24.8 °F 75% 29.90 in 10.0 mi West 9.2 mph - N/A   Overcast
4:53 AM 32.0 °F 25.6 °F 24.8 °F 75% 29.90 in 10.0 mi West 6.9 mph - N/A   Overcast
5:13 AM 32.0 °F 24.8 °F 24.8 °F 75% 29.91 in 10.0 mi West 8.1 mph - N/A   Overcast
5:33 AM 32.0 °F 25.6 °F 24.8 °F 75% 29.91 in 10.0 mi WNW 6.9 mph - N/A   Overcast
5:53 AM 32.0 °F 26.4 °F 24.8 °F 75% 29.92 in 10.0 mi West 5.8 mph - N/A   Overcast
6:13 AM 32.0 °F 26.4 °F 24.8 °F 75% 29.92 in 10.0 mi West 5.8 mph - N/A   Overcast
6:33 AM 32.0 °F 27.5 °F 24.8 °F 75% 29.92 in 10.0 mi West 4.6 mph - N/A   Overcast
6:53 AM 32.0 °F 24.8 °F 24.8 °F 75% 29.93 in 10.0 mi West 8.1 mph - N/A   Overcast
7:13 AM 32.0 °F 26.4 °F 24.8 °F 75% 29.94 in 10.0 mi West 5.8 mph - N/A   Overcast
7:33 AM 32.0 °F 27.5 °F 24.8 °F 75% 29.95 in 10.0 mi West 4.6 mph - N/A   Overcast
7:53 AM 32.0 °F 27.5 °F 24.8 °F 75% 29.95 in 10.0 mi West 4.6 mph - N/A   Overcast
8:12 AM 32.0 °F 28.7 °F 24.8 °F 75% 29.95 in 10.0 mi West 3.5 mph - N/A   Overcast
8:33 AM 32.0 °F 28.7 °F 24.8 °F 75% 29.96 in 10.0 mi West 3.5 mph - N/A   Overcast
8:53 AM 33.8 °F 29.6 °F 24.8 °F 70% 29.96 in 10.0 mi West 4.6 mph - N/A   Overcast
9:12 AM 33.8 °F - 24.8 °F 70% 29.96 in 10.0 mi Calm Calm - N/A   Overcast
9:33 AM 33.8 °F 30.8 °F 24.8 °F 70% 29.96 in 10.0 mi NW 3.5 mph - N/A   Overcast
9:52 AM 33.8 °F 30.8 °F 24.8 °F 70% 29.97 in 10.0 mi WNW 3.5 mph - N/A   Overcast
10:13 AM 33.8 °F - 24.8 °F 70% 29.98 in 10.0 mi Calm Calm - N/A   Overcast
10:32 AM 33.8 °F - 24.8 °F 70% 29.97 in 10.0 mi Calm Calm - N/A   Overcast
10:53 AM 35.6 °F - 24.8 °F 65% 29.97 in 10.0 mi Calm Calm - N/A   Overcast
11:13 AM 33.8 °F - 24.8 °F 70% 29.97 in 10.0 mi Calm Calm - N/A   Overcast
11:32 AM 35.6 °F - 24.8 °F 65% 29.97 in 10.0 mi Calm Calm - N/A   Overcast
11:53 AM 35.6 °F 32.8 °F 24.8 °F 65% 29.96 in 10.0 mi North 3.5 mph - N/A   Overcast
12:13 PM 35.6 °F 32.8 °F 24.8 °F 65% 29.96 in 10.0 mi North 3.5 mph - N/A   Overcast
12:32 PM 35.6 °F 31.7 °F 24.8 °F 65% 29.96 in 10.0 mi North 4.6 mph - N/A   Overcast
12:53 PM 35.6 °F 32.8 °F 24.8 °F 65% 29.96 in 10.0 mi WNW 3.5 mph - N/A   Scattered Clouds
1:13 PM 37.4 °F 33.8 °F 24.8 °F 60% 29.96 in 10.0 mi WNW 4.6 mph - N/A   Mostly Cloudy
1:32 PM 35.6 °F - 24.8 °F 65% 29.95 in 10.0 mi Calm Calm - N/A   Mostly Cloudy
1:53 PM 35.6 °F - 24.8 °F 65% 29.95 in 10.0 mi Calm Calm - N/A   Mostly Cloudy
2:12 PM 35.6 °F - 24.8 °F 65% 29.95 in 10.0 mi Calm Calm - N/A   Mostly Cloudy
2:33 PM 37.4 °F 34.9 °F 24.8 °F 60% 29.95 in 10.0 mi NE 3.5 mph - N/A   Overcast
2:53 PM 35.6 °F 32.8 °F 24.8 °F 65% 29.95 in 10.0 mi East 3.5 mph - N/A   Mostly Cloudy
3:12 PM 35.6 °F 31.7 °F 24.8 °F 65% 29.95 in 10.0 mi East 4.6 mph - N/A   Overcast
3:33 PM 35.6 °F 32.8 °F 24.8 °F 65% 29.96 in 10.0 mi ENE 3.5 mph - N/A   Overcast
3:53 PM 35.6 °F - 24.8 °F 65% 29.96 in 10.0 mi Calm Calm - N/A   Overcast
4:12 PM 35.6 °F - 24.8 °F 65% 29.96 in 10.0 mi Calm Calm - N/A   Overcast
4:33 PM 35.6 °F 31.7 °F 24.8 °F 65% 29.97 in 10.0 mi NE 4.6 mph - N/A   Overcast
4:53 PM 35.6 °F 31.7 °F 24.8 °F 65% 29.97 in 10.0 mi NE 4.6 mph - N/A   Overcast
5:12 PM 33.8 °F 30.8 °F 24.8 °F 70% 29.97 in 10.0 mi NE 3.5 mph - N/A   Overcast
5:33 PM 33.8 °F 30.8 °F 24.8 °F 70% 29.98 in 10.0 mi ENE 3.5 mph - N/A   Overcast
5:53 PM 33.8 °F 30.8 °F 24.8 °F 70% 29.98 in 10.0 mi NE 3.5 mph - N/A   Mostly Cloudy
6:13 PM 33.8 °F - 24.8 °F 70% 29.99 in 10.0 mi Calm Calm - N/A   Scattered Clouds
6:32 PM 33.8 °F - 24.8 °F 70% 30.00 in 10.0 mi Calm Calm - N/A   Mostly Cloudy
6:53 PM 32.0 °F - 24.8 °F 75% 30.00 in 10.0 mi Calm Calm - N/A   Overcast
7:12 PM 32.0 °F - 24.8 °F 75% 30.01 in 10.0 mi Calm Calm - N/A   Overcast
7:33 PM 33.8 °F 30.8 °F 24.8 °F 70% 30.01 in 10.0 mi NE 3.5 mph - N/A   Overcast
7:53 PM 33.8 °F 30.8 °F 24.8 °F 70% 30.02 in 10.0 mi NE 3.5 mph - N/A   Overcast
8:12 PM 33.8 °F - 24.8 °F 70% 30.02 in 10.0 mi Calm Calm - N/A   Overcast
8:33 PM 33.8 °F - 24.8 °F 70% 30.03 in 10.0 mi Calm Calm - N/A   Overcast
8:53 PM 32.0 °F - 24.8 °F 75% 30.03 in 10.0 mi Calm Calm - N/A   Overcast
9:13 PM 32.0 °F - 24.8 °F 75% 30.03 in 10.0 mi Calm Calm - N/A   Overcast
9:32 PM 32.0 °F - 24.8 °F 75% 30.03 in 10.0 mi Calm Calm - N/A   Overcast
9:53 PM 32.0 °F - 24.8 °F 75% 30.03 in 10.0 mi Calm Calm - N/A   Overcast
10:13 PM 32.0 °F - 24.8 °F 75% 30.04 in 10.0 mi Calm Calm - N/A   Overcast
10:32 PM 32.0 °F 28.7 °F 24.8 °F 75% 30.04 in 10.0 mi NNW 3.5 mph - N/A   Overcast
10:53 PM 32.0 °F - 24.8 °F 75% 30.04 in 10.0 mi Calm Calm - N/A   Overcast
11:13 PM 32.0 °F - 24.8 °F 75% 30.04 in 10.0 mi Calm Calm - N/A   Overcast
11:32 PM 32.0 °F 28.7 °F 24.8 °F 75% 30.04 in 10.0 mi NNW 3.5 mph - N/A   Overcast
11:53 PM 32.0 °F 28.7 °F 24.8 °F 75% 30.05 in 10.0 mi NNW 3.5 mph - N/A   Overcast